Regional Weather Roundup
Issued by NWS

Home | Current Version | Previous Version | Graphics & Text | Print | Product List | Glossary On
Versions: 1 2 3 4 5 6 7 8 9 10 11 12 13 14 15 16 17 18 19 20 21 22 23 24 25 26 27 28 29 30 31 32 33 34 35 36 37 38 39 40 41 42 43 44 45 46 47 48 49 50
433
ASUS43 KLOT 241903
RWRIL

ILLINOIS REGIONAL WEATHER ROUNDUP
NATIONAL WEATHER SERVICE CHICAGO/ROMEOVILLE IL
200 PM CDT MON JUL 24 2017

NOTE: "FAIR" INDICATES FEW OR NO CLOUDS BELOW 12,000 FEET WITH NO
SIGNIFICANT WEATHER AND/OR OBSTRUCTIONS TO VISIBILITY.

* THESE STATIONS ARE NOT UNDER NWS QUALITY CONTROL. THEY ALSO MAY NOT
  REPORT WEATHER SUCH AS PRECIPITATION OR FOG.

ILZ001-002-007-009-015-016-024-242000-
NORTHWEST ILLINOIS

CITY           SKY/WX    TMP DP  RH WIND       PRES   REMARKS
MOLINE         CLOUDY    74  64  71 NE7       30.04S
STERLING*      CLOUDY    75  62  64 N6        30.05F
SAVANNA*       PTSUNNY   75  61  62 NE6       30.05F
$$

ILZ003-004-008-010-011-017-018-242000-
NORTH CENTRAL ILLINOIS

CITY           SKY/WX    TMP DP  RH WIND       PRES   REMARKS
ROCKFORD       PTSUNNY   74  59  59 E5        30.07F
FREEPORT*      CLOUDY    71  59  64 NE9       30.08S
ROCHELLE*      CLOUDY    72  60  65 NE13      30.07R
DE KALB*       CLOUDY    74  62  66 N6        30.07S
$$

ILZ005-006-012>014-019>023-242000-
NORTHEAST ILLINOIS

CITY           SKY/WX    TMP DP  RH WIND       PRES   REMARKS
CHICAGO-OHARE  PTSUNNY   73  56  54 N10       30.05F
CHICAGO-MIDWAY PTSUNNY   74  58  57 NE13G20   30.04F
AURORA         PTSUNNY   73  59  61 NE7       30.05F
LANSING*       CLOUDY    71  56  59 N13       30.04S
JOLIET*        PTSUNNY   74  61  63 NE10G16   30.05R
WAUKEGAN       MOSUNNY   70  60  70 NE10G25   30.06S
DUPAGE AIRPORT MOSUNNY   74  61  63 NE10      30.05S
WHEELING       CLOUDY    69  60  73 NE10      30.08R
MORRIS*        CLOUDY    74  61  63 CALM      30.04R
NORTHERLY ISL    N/A     72  57  59 NE8         N/A
$$

LMZ740>746-242000-
SOUTHERN LAKE MICHIGAN

STATION/POSITION SKY/WX   TEMP    WIND        PRES    VSBY  WAVE
                          AIR SEA DIR/SP/G                  HT/PER
                          (F)     (DEG/KT/KT) (MB)    (MI)  (FT/S)
SOUTHERN BUOY              66 70   20/ 12/ 16 1017.4          4/ 7
WILMETTE HARBOR            67 72   10/ 12/ 16   N/A           5/ 6
HARRISON CRIB              68      10/ 14/ 16   N/A
BURNHAM HARBOR             70                   N/A
CALUMET HARBOR             70     360/ 11/ 14 1017.2S
BURNS HARBOR               69      10/ 14/ 16 1017.6R
MICHIGAN CITY              67     360/ 14/ 15   N/A
MICHIGAN CITY 6N           68 74   20/ 12/ 16   N/A           5/ 6
ST. JOSEPH                 68 73   30/ 12/ 17 1017.1R         4/ 6
$$

ILZ025>027-034>036-040-047-049-050-058-095>099-242000-
WEST-CENTRAL ILLINOIS

CITY           SKY/WX    TMP DP  RH WIND       PRES   REMARKS
QUINCY         MOSUNNY   83  60  45 N8        30.00S HX  83
GALESBURG*     CLOUDY    74  65  72 NE8       30.05R
MACOMB*        MOSUNNY   78  68  70 NE10      30.04S HX  80
JACKSONVILLE*  MOSUNNY   80  67  62 NE12      30.00R HX  83
PITTSFIELD*    MOSUNNY   84  63  49 E5        30.01R HX  84
$$

ILZ028>032-037-038-041>044-048-051>054-059>061-242000-
CENTRAL ILLINOIS

CITY           SKY/WX    TMP DP  RH WIND       PRES   REMARKS
PONTIAC        CLOUDY    75  67  75 NE8       30.04S
BLOOMINGTON    CLOUDY    75  66  73 NE9       30.04S
DECATUR        PTSUNNY   81  68  64 NE8       30.00S HX  84
PEORIA         CLOUDY    75  66  73 NE6       30.03S
LACON*         CLOUDY    73  64  73 N6        30.04R
LINCOLN*       CLOUDY    75  69  79 N8        30.02S
SPRINGFIELD    MOSUNNY   82  71  69 N13       30.01R HX  86
TAYLORVILLE    NOT AVBL
$$

ILZ033-039-045-046-055>057-062-063-242000-
EAST-CENTRAL ILLINOIS

CITY           SKY/WX    TMP DP  RH WIND       PRES   REMARKS
CHAMPAIGN      PTSUNNY   80  66  62 N7        30.01S HX  82
MATTOON        MOSUNNY   81  70  69 N10       29.99R HX  84
PARIS*         MOSUNNY   80  70  71 NE6       30.01R HX  82
$$

ILZ079-100>102-242000-
SOUTHWEST ILLINOIS

CITY           SKY/WX    TMP DP  RH WIND       PRES   REMARKS
ALTON          PTSUNNY   82  68  61 N7        29.98S HX  85
BELLEVILLE     MOSUNNY   86  69  55 NE5       29.98S HX  90
CAHOKIA*       SUNNY     90  64  42 VRB3      29.96S HX  91
$$

ILZ064>066-069>071-074>076-080>082-084>086-088>090-092>094-242000-
SOUTH-CENTRAL ILLINOIS

CITY           SKY/WX    TMP DP  RH WIND       PRES   REMARKS
CARBONDALE     PTSUNNY   88  74  63 NW5       29.95S HX  96
CAIRO*         SUNNY     90  75  60 S6        29.94S HX 100
EFFINGHAM*     PTSUNNY   83  67  58 NE3       30.00R HX  86
MARION         MOSUNNY   90  73  58 NE8       29.96S HX  98
MT. VERNON     SUNNY     88  67  49 VRB6      29.96S HX  91
CENTRALIA*     PTSUNNY   87  69  54 CALM      29.97R HX  91
SALEM*         SUNNY     87  67  50 CALM      29.97S HX  89
METROPOLIS*    CLOUDY    91  72  53 W5        29.95S HX  99
$$

ILZ067-068-072-073-078-083-087-091-242000-
SOUTHEAST ILLINOIS

CITY           SKY/WX    TMP DP  RH WIND       PRES   REMARKS
LAWRENCEVILLE  MOSUNNY   85  69  58 N6        29.96S HX  89
FLORA*         MOSUNNY   88  67  49 N9        29.97S HX  90
FAIRFIELD*     MOSUNNY   86  69  55 N3        29.95S HX  90
HARRISBURG*    CLOUDY    88  73  61 CALM      29.95S HX  95
ROBINSON*      MOSUNNY   82  69  65 N3        29.98S HX  85
CARMI*         MOSUNNY   87  71  58 N3        29.95R HX  93
$$

ABBREVIATIONS USED IN REMARKS
   TC - TEMPERATURE IN CELSIUS
  WCI - WIND CHILL INDEX
   HX - HEAT INDEX
  VSB - VISIBILITY
$$





USA.gov is the U.S. government's official web portal to all federal, state and local government web resources and services.